EW6659 Weather Reports


time (UTC)temp
C
wind
direction
speed
KPH
gust
KPH
rain 1hr
cm
rain 24hr
cm
rain mn
cm
humidity
%
barometer
mb
20260509173005 14 227 0.0 4.8 0.00 0.00 0.00 35 1005.7
20260509171600 13 250 0.0 0.0 0.00 0.00 0.00 32 1005.8
20260509170056 13 233 0.0 4.8 0.00 0.00 0.00 29 1006.0
20260509164553 13 219 0.0 4.8 0.00 0.00 0.00 24 1006.0
20260509163049 13 265 0.0 0.0 0.00 0.00 0.00 17 1006.3
20260509161545 12 61 0.0 0.0 0.00 0.00 0.00 12 1006.5
20260509160041 12 236 0.0 0.0 0.00 0.00 0.00 3 1006.7
20260509154533 12 241 0.0 0.0 0.00 0.00 0.00 3 1006.8
20260509153043 12 254 0.0 0.0 0.00 0.00 0.00 3 1006.9
20260509151525 12 78 0.0 0.0 0.00 0.00 0.00 3 1007.0
20260509150030 12 167 0.0 0.0 0.00 0.00 0.00 7 1007.2
20260509144515 12 220 0.0 0.0 0.00 0.00 0.00 8 1007.1
20260509143011 12 278 0.0 0.0 0.00 0.00 0.00 4 1007.1
20260509141507 12 250 0.0 0.0 0.00 0.00 0.00 1 1007.2
20260509140004 11 66 0.0 0.0 0.00 0.00 0.00 1 1007.4
20260509134559 11 210 0.0 0.0 0.00 0.00 0.00 1 1007.5
20260509133055 11 142 0.0 1.6 0.00 0.00 0.00 1 1007.6
20260509131553 10 156 0.0 0.0 0.00 0.00 0.00 1 1007.7
20260509130045 10 252 0.0 3.2 0.00 0.00 0.00 1 1007.6
20260509124541 10 227 0.0 0.0 0.00 0.00 0.00 1 1007.6
20260509123042 10 231 0.0 0.0 0.00 0.00 0.00 1 1007.5
20260509121533 9 233 0.0 0.0 0.00 0.00 0.00 1 1007.7
20260509120031 7 233 0.0 0.0 0.00 0.00 0.00 1 1007.8
20260509114524 6 27 0.0 0.0 0.00 0.00 0.00 1 1008.0
20260509113018 6 27 0.0 0.0 0.00 0.00 0.00 1 1008.2
20260509111514 6 27 0.0 0.0 0.00 0.00 0.00 1 1008.0
20260509110013 5 27 0.0 0.0 0.00 0.00 0.00 1 1008.1
20260509104512 5 27 0.0 0.0 0.00 0.00 0.00 1 1008.1
20260509103011 5 27 0.0 0.0 0.00 0.00 0.00 1 1008.1
20260509101511 4 27 0.0 0.0 0.00 0.00 0.00 1 1008.0
20260509100010 4 27 0.0 0.0 0.00 0.00 0.00 1 1007.9
20260509094505 4 27 0.0 0.0 0.00 0.00 0.00 1 1007.8
20260509093001 4 27 0.0 0.0 0.00 0.00 0.00 1 1007.7
20260509091557 4 27 0.0 0.0 0.00 0.00 0.00 1 1007.9
20260509090056 4 27 0.0 0.0 0.00 0.00 0.00 1 1008.0
20260509084550 4 27 0.0 0.0 0.00 0.00 0.00 1 1008.4
20260509083051 4 27 0.0 0.0 0.00 0.00 0.00 1 1008.4
20260509081540 4 27 0.0 0.0 0.00 0.00 0.00 1 1008.6
20260509080035 4 27 0.0 0.0 0.00 0.00 0.00 1 1008.6
20260509074531 5 27 0.0 0.0 0.00 0.00 0.00 1 1008.7
20260509073026 5 27 0.0 0.0 0.00 0.00 0.00 1 1008.9
20260509071521 5 27 0.0 0.0 0.00 0.00 0.00 2 1008.7
20260509070018 5 27 0.0 0.0 0.00 0.00 0.00 1 1008.8
20260509064513 5 27 0.0 0.0 0.00 0.00 0.00 2 1008.9
20260509063008 5 27 0.0 0.0 0.00 0.00 0.00 12 1009.1
20260509061505 5 27 0.0 0.0 0.00 0.00 0.00 21 1009.1
20260509054609 5 27 0.0 0.0 0.00 0.00 0.00 30 1009.7
20260509053055 5 27 0.0 0.0 0.00 0.00 0.00 28 1009.8
20260509051547 5 27 0.0 0.0 0.00 0.00 0.00 30 1009.9
20260509050052 5 26 0.0 0.0 0.00 0.00 0.00 29 1010.1
20260509044538 5 27 0.0 0.0 0.00 0.00 0.00 23 1010.2
20260509043037 5 27 0.0 0.0 0.00 0.00 0.00 12 1010.2
20260509041529 4 27 0.0 0.0 0.00 0.00 0.00 7 1010.3
20260509040025 4 27 0.0 0.0 0.00 0.00 0.00 9 1010.2
20260509034520 4 27 0.0 0.0 0.00 0.00 0.00 3 1010.2
20260509033016 3 27 0.0 0.0 0.00 0.00 0.00 3 1010.3
20260509031523 3 27 0.0 0.0 0.00 0.00 0.00 2 1010.2
20260509030006 3 27 0.0 0.0 0.00 0.00 0.00 1 1010.4
20260509024502 3 27 0.0 0.0 0.00 0.00 0.00 5 1010.4
20260509023102 4 27 0.0 0.0 0.00 0.00 0.00 12 1010.5
20260509021554 4 27 0.0 0.0 0.00 0.00 0.00 16 1010.5
20260509020049 5 27 0.0 0.0 0.00 0.00 0.00 22 1010.5
20260509014545 5 27 0.0 0.0 0.00 0.00 0.00 29 1010.3
20260509013044 5 27 0.0 0.0 0.00 0.00 0.00 35 1010.2
20260509011538 6 27 0.0 0.0 0.00 0.00 0.00 42 1010.0
20260509010031 6 27 0.0 0.0 0.00 0.00 0.00 50 1009.7
20260509004535 7 26 0.0 0.0 0.00 0.00 0.00 53 1009.5
20260509003023 8 27 0.0 0.0 0.00 0.00 0.00 56 1009.4
20260509001518 9 27 0.0 0.0 0.00 0.00 0.00 57 1009.3
20260509000015 10 26 0.0 0.0 0.00 0.00 0.00 53 1009.2
20260508234509 12 27 0.0 0.0 0.00 0.00 0.00 47 1009.0
20260508233005 14 27 0.0 0.0 0.00 0.00 0.00 40 1009.0
20260508231502 13 26 0.0 0.0 0.00 0.00 0.00 41 1008.9
20260508230104 13 231 0.0 0.0 0.00 0.00 0.00 41 1008.9
20260508224555 13 307 0.0 0.0 0.00 0.00 0.00 40 1008.9
20260508223047 13 70 0.0 0.0 0.00 0.00 0.00 40 1009.0
20260508221543 13 252 0.0 0.0 0.00 0.00 0.00 39 1009.3
20260508220042 13 265 0.0 0.0 0.00 0.00 0.00 41 1009.3
20260508214534 13 258 0.0 0.0 0.00 0.00 0.00 40 1009.4
20260508213043 12 227 0.0 0.0 0.00 0.00 0.00 42 1009.5
20260508211529 12 309 0.0 0.0 0.00 0.00 0.00 43 1009.5
20260508210021 13 231 0.0 1.6 0.00 0.00 0.00 43 1009.5
20260508204518 12 276 0.0 9.7 0.00 0.00 0.00 43 1009.6
20260508203014 12 296 0.0 0.0 0.00 0.00 0.00 47 1009.6
20260508201508 13 290 0.0 1.6 0.00 0.00 0.00 45 1009.7
20260508200007 12 290 0.0 29.0 0.00 0.00 0.00 44 1010.0
20260508194559 12 288 0.0 11.3 0.00 0.00 0.00 49 1010.2
20260508193057 11 138 0.0 0.0 0.00 0.00 0.00 52 1010.1
20260508191551 11 238 0.0 0.0 0.00 0.00 0.00 55 1010.2
20260508190051 11 133 0.0 4.8 0.00 0.00 0.00 52 1010.3
20260508184541 10 216 0.0 1.6 0.00 0.00 0.00 55 1010.5
20260508183038 10 258 0.0 3.2 0.00 0.00 0.00 56 1010.7
20260508181554 10 265 0.0 4.8 0.00 0.00 0.00 55 1010.7
20260508180028 10 297 0.0 4.8 0.00 0.00 0.00 55 1010.7
20260508174528 10 226 0.0 1.6 0.00 0.00 0.00 55 1010.7